Погода в Приводино

Россия / Архангельская область     61°04′50″N   46°30′05″E
темп.,
°C
ветер,
м/с
пор.,
м/с
влажн.,
%
обл.,
%
осадки,
мм/ч
давл.,
гПа
погр.,
м
14 мая, пт
пт1400:00+15ю21075100 0.0 1018216
03:00+14ююв21083100 0.1 1017217
06:00+17ююз49813 0.0 1017495
09:00+20юз476345 0.0 10171304
12:00+23юз57404 0.0 10171821
15:00+24юз4734100 0.0 10172366
18:00+21юз2450100 0.0 1015163
21:00+16зсз266659 0.0 1015120
15 мая, сб
сб1500:00+13з2265100 0.0 101629
03:00+12юз1170100 0.0 101610
06:00+14ююз2566100 0.0 1016167
09:00+15ююв116866 0.0 101698
12:00+14юв118895 0.6 101629
15:00+17в1285100 1.6 1014169
18:00+18всв228217 0.4 1012280
21:00+15ююв41397100 2.4 1013467
16 мая, вс
вс1600:00+14ю41391100 2.2 1010421
03:00+14ю3119831 2.2 1010409
06:00+15ююз410905 0.0 1010395
09:00+20ююз59670 0.0 10101110
12:00+23юз6104641 0.0 10092346
15:00+23юз6114867 0.0 10092072
18:00+20юз5106388 0.0 10091261
21:00+16юз4127934 0.0 1010658
17 мая, пн
пн1700:00+14юз3118594 0.0 1011447
03:00+12ююз39966 0.0 1012284
06:00+15зюз478454 0.0 1013487
09:00+19зюз47587 0.0 10141285
12:00+22зюз584399 0.0 10142106
15:00+24зюз583723 0.0 10142596
18:00+22зюз364635 0.0 1014848
21:00+17з226389 0.0 101517
18 мая, вт
вт1800:00+14ссв117260 0.0 101611
03:00+12всв118063 0.0 101710
06:00+16в126779 0.0 1017151
09:00+22вюв2248100 0.0 1016724
12:00+25ююв234197 0.0 10161345
15:00+27ю343910 0.0 10151953
18:00+26юв244529 0.0 1013162
21:00+19юв367159 0.0 101396